This is the latest recevied weather packets stored in our database for station/object K8JMX-13. If no packets are shown the sender has not sent any weather packets the latest 10 day(s).
| Time | Temp. | Humidity | Pressure | Rain* | Wind** | Luminosity | Snow |
|---|---|---|---|---|---|---|---|
| 1777937668 | 22.78° C | 48% | 1004.4 hPa | 0 mm | - | 55 W/m² | - |
| 1777937365 | 22.78° C | 48% | 1004.3 hPa | 0 mm | - | 69 W/m² | - |
| 1777937062 | 22.22° C | 48% | 1004.3 hPa | 0 mm | - | 96 W/m² | - |
| 1777936759 | 22.22° C | 49% | 1004.4 hPa | 0 mm | - | 61 W/m² | - |
| 1777936455 | 22.22° C | 48% | 1004.4 hPa | 0 mm | - | 73 W/m² | - |
| 1777936152 | 22.22° C | 48% | 1004.3 hPa | 0 mm | - | 80 W/m² | - |
| 1777935849 | 22.22° C | 48% | 1004.5 hPa | 0 mm | - | 70 W/m² | - |
| 1777935548 | 21.67° C | 48% | 1004.6 hPa | 0 mm | - | 93 W/m² | - |
| 1777935244 | 22.22° C | 48% | 1004.7 hPa | 0 mm | - | 54 W/m² | - |
| 1777934942 | 22.22° C | 48% | 1005 hPa | 0 mm | - | 84 W/m² | - |
| 1777934638 | 22.22° C | 48% | 1005.1 hPa | 0 mm | - | 74 W/m² | - |
| 1777934335 | 21.67° C | 48% | 1004.9 hPa | 0 mm | - | 245 W/m² | - |
| 1777934031 | 22.22° C | 48% | 1005.3 hPa | 0 mm | - | 101 W/m² | - |
| 1777933727 | 21.67° C | 49% | 1005.1 hPa | 0 mm | - | 228 W/m² | - |
| 1777933424 | 22.22° C | 49% | 1005.3 hPa | 0 mm | - | 138 W/m² | - |
| 1777933123 | 21.67° C | 49% | 1005.2 hPa | 0 mm | - | 296 W/m² | - |
| 1777932819 | 21.11° C | 50% | 1005.4 hPa | 0 mm | - | 304 W/m² | - |
| 1777932517 | 21.11° C | 51% | 1005.2 hPa | 0 mm | - | 103 W/m² | - |
| 1777932213 | 21.11° C | 50% | 1005.3 hPa | 0 mm | - | 156 W/m² | - |
| 1777931910 | 22.22° C | 49% | 1005.2 hPa | 0 mm | - | 260 W/m² | - |
| 1777931606 | 21.67° C | 49% | 1005.5 hPa | 0 mm | - | 335 W/m² | - |
| 1777931303 | 21.67° C | 48% | 1005.4 hPa | 0 mm | - | 344 W/m² | - |
| 1777931000 | 21.67° C | 48% | 1005.4 hPa | 0 mm | - | 444 W/m² | - |
| 1777930696 | 22.22° C | 48% | 1005.3 hPa | 0 mm | - | 460 W/m² | - |
| 1777930392 | 22.22° C | 46% | 1005.5 hPa | 0 mm | - | 453 W/m² | - |
* Rain latest hour (hover to see other rain measurements)
** Current wind speed in m/s (hover to see current wind gust speed)